Location: Brede
(50.9167°N, 0.6000°E)
Time: 20:20:46
(UTC+00:00)

Vanguard 1 Rocket - Pass Details

Date: 04 December 2020
Orbit: 655 x 4221 km, 34.3° (Epoch: 17 January)

Event Time Altitude Azimuth Distance (km) Brightness Sun altitude
Exits shadow 06:47:00 - 274° (W) 7,422 11.4 -8.4°
Reaches altitude 10° 06:52:16 10° 265° (W) 6,447 11.2 -7.6°
Maximum altitude 07:02:44 18° 232° (SW) 4,834 10.9 -6.2°
Drops below altitude 10° 07:10:28 10° 196° (SSW) 4,553 11.2 -5.1°
Sets 07:14:58 0° 177° (S) 4,969 11.7 -4.5°
